Location: Moonridge Observatory
(39.2268°N, 77.7914°W)
Time: 13:53:57
(UTC-04:00)

Amateur Radio Satellites - All Passes

Search period start: 27 May 2015 13:23
Search period end: 28 May 2015 13:23
Location: Moonridge Observatory, 39.2268°N, 77.7914°W

Satellite Date Start Highest point End Downlink Frequencies (MHz)
Time Altitude Azimuth
DANDE 27 May 13:29:42 13:36:38 65° 94° (E) 13:44:58 436.750
GONETS M04 27 May 13:46:07 13:54:56 78° 95° (E) 14:03:48
Oscar 19 27 May 13:53:36 13:58:48 90° 170° (S) 14:04:03 437.125/150
CUBEBUG 1 27 May 13:56:00 13:58:42 16° 294° (WNW) 14:01:15 437.445
CUSAT 1 27 May 13:58:06 14:05:23 67° 283° (WNW) 14:13:41 437.405
ESTCUBE 1 27 May 14:04:20 14:06:10 12° 296° (WNW) 14:07:44 437.505/2401.250
ITAMSAT 1 27 May 14:09:11 14:13:52 37° 70° (ENE) 14:18:39 435.822/435.867
ITUPSAT 1 27 May 14:21:16 14:25:32 32° 96° (E) 14:29:50 437.325
BEESAT 27 May 14:28:32 14:32:59 39° 98° (E) 14:37:28 436.000
SPROUT 27 May 14:32:38 14:35:53 20° 292° (WNW) 14:38:59 437.525
SWISSCUBE 27 May 14:36:57 14:41:38 52° 100° (E) 14:46:19 437.505
Gurwin Techsat 1B 27 May 14:48:58 14:54:16 83° 77° (ENE) 14:59:38 435.225
Cosmos 2499 27 May 14:50:20 14:57:33 38° 89° (E) 15:04:26 435.465 / 435.565
TISAT 1 27 May 14:54:34 14:57:17 16° 293° (WNW) 14:59:49 437.305
SRMSAT 27 May 14:57:49 14:58:51 10° 184° (S) 14:59:51 437.500
AO-7 27 May 15:13:09 15:20:26 37° 62° (ENE) 15:27:54 29.400- 29.500
DANDE 27 May 15:14:27 15:20:41 27° 296° (WNW) 15:27:29 436.750
RS-15 27 May 15:20:44 15:28:31 20° 16° (NNE) 15:36:47 29.354- 29.394
JAS-2 27 May 15:25:00 15:30:59 38° 71° (ENE) 15:36:26 435.910
STARS 27 May 15:28:54 15:31:49 18° 92° (E) 15:34:51 437.465
CUSAT 1 27 May 15:45:58 15:50:01 14° 305° (NW) 15:53:41 437.405
GONETS M04 27 May 15:46:17 15:52:56 22° 296° (WNW) 15:59:13
ITAMSAT 1 27 May 15:49:15 15:53:30 25° 266° (W) 15:57:40 435.822/435.867
HORYU 2 27 May 15:51:02 15:55:26 58° 74° (ENE) 15:59:52 437.375
ITUPSAT 1 27 May 15:59:20 16:03:18 26° 292° (WNW) 16:07:11 437.325
KKS-1 27 May 16:01:11 16:05:40 67° 101° (E) 16:10:07 437.445
BEESAT 27 May 16:06:58 16:10:37 21° 293° (WNW) 16:14:08 436.000
O/OREOS (USA 219) 27 May 16:08:51 16:13:22 90° 116° (ESE) 16:17:54 437.305
SWISSCUBE 27 May 16:16:03 16:19:07 17° 295° (WNW) 16:22:00 437.505
Gurwin Techsat 1B 27 May 16:33:28 16:35:02 11° 273° (W) 16:36:13 435.225
Cosmos 2499 27 May 16:43:04 16:50:40 41° 285° (WNW) 16:57:41 435.465 / 435.565
STARS 27 May 17:04:19 17:08:28 39° 288° (WNW) 17:12:33 437.465
AO-7 27 May 17:05:04 17:13:03 50° 259° (W) 17:21:03 29.400- 29.500
JAS-2 27 May 17:10:04 17:16:07 33° 263° (W) 17:21:29 435.910
BEESAT 2 27 May 17:14:06 17:15:07 11° 109° (ESE) 17:16:22 435.950
HORYU 2 27 May 17:30:35 17:32:31 12° 271° (W) 17:34:13 437.375
RS-15 27 May 17:33:40 17:44:47 50° 47° (NE) 17:56:26 29.354- 29.394
YUBILEINY 27 May 17:34:13 17:39:52 19° 62° (ENE) 17:45:56 435.215
MOZHAYETS 4 27 May 17:34:15 17:38:44 54° 100° (E) 17:43:13
KKS-1 27 May 17:40:03 17:41:48 12° 296° (WNW) 17:43:19 437.445
BEESAT 3 27 May 17:59:11 18:03:04 45° 117° (ESE) 18:07:01 437.485
CUTE-I 27 May 18:05:18 18:10:10 40° 70° (ENE) 18:15:09 437.470
Cubesat XI-IV 27 May 18:25:42 18:30:55 63° 74° (ENE) 18:36:13 437.490
AIST 2 27 May 18:43:09 18:46:50 30° 114° (ESE) 18:50:38 435.215
BEESAT 2 27 May 18:48:40 18:52:44 63° 303° (WNW) 18:56:51 435.950
HO-68 27 May 19:00:42 19:03:08 12° 53° (NE) 19:05:59 435.675
STRAND 1 27 May 19:12:22 19:15:54 19° 92° (E) 19:19:38 437.568
MOZHAYETS 4 27 May 19:12:56 19:15:33 15° 294° (WNW) 19:18:00
CUBESAT XI-V 27 May 19:14:43 19:19:18 50° 99° (E) 19:23:53 437.345
YUBILEINY 27 May 19:29:16 19:38:00 85° 265° (W) 19:46:42 435.215
Cosmos 2491 27 May 19:31:18 19:39:45 56° 91° (E) 19:48:19 435.465 / 435.565
BEESAT 3 27 May 19:38:23 19:41:18 18° 315° (NW) 19:44:09 437.485
CUTE-I 27 May 19:46:06 19:50:25 24° 267° (W) 19:54:39 437.470
RS-15 27 May 19:46:16 19:57:28 52° 248° (WSW) 20:08:55 29.354- 29.394
AIST 1 27 May 19:53:32 19:54:14 10° 86° (E) 19:55:12
GOMX 1 27 May 19:59:30 20:03:52 29° 68° (ENE) 20:08:32 467.674
BRITE-PL 27 May 20:00:03 20:04:52 45° 72° (ENE) 20:10:05 437.365/2234.400
SEEDS 27 May 20:02:29 20:04:09 12° 66° (ENE) 20:06:02 437.485
Cubesat XI-IV 27 May 20:08:24 20:11:34 15° 271° (W) 20:14:28 437.490
COMPASS 1 27 May 20:14:13 20:16:11 13° 66° (ENE) 20:18:20 437.405
Cosmos 2504 27 May 20:16:53 20:21:19 18° 64° (ENE) 20:26:05 435.465 / 435.565
PRISM 27 May 20:19:57 20:24:06 70° 285° (WNW) 20:28:14 437.425
AIST 2 27 May 20:21:47 20:25:26 26° 311° (NW) 20:29:04 435.215
AAUSAT CUBESAT 2 27 May 20:25:17 20:27:39 15° 67° (ENE) 20:30:09 437.432
CINEMA 3 27 May 20:30:12 20:33:35 19° 66° (ENE) 20:37:10 145.822/145.860
M-CUBED/EXP-1 PRIME 27 May 20:37:00 20:40:16 56° 106° (ESE) 20:43:33 437.505
HO-68 27 May 20:42:37 20:49:42 66° 71° (ENE) 20:56:49 435.675
AUBIESAT-1 27 May 20:44:26 20:47:42 60° 106° (ESE) 20:51:01 437.475
STRAND 1 27 May 20:50:29 20:55:25 48° 289° (WNW) 21:00:20 437.568
CUBESAT XI-V 27 May 20:53:21 20:56:23 17° 294° (WNW) 20:59:14 437.345
DOVE 4 27 May 20:55:49 21:00:52 66° 75° (ENE) 21:06:10 437.250
CANX-2 27 May 21:10:27 21:14:43 81° 258° (WSW) 21:18:59 2200.000
CUTE 1.7 + AOD 2 27 May 21:13:52 21:18:08 82° 258° (WSW) 21:22:25 437.475
ZACube-1 27 May 21:15:31 21:18:17 17° 67° (ENE) 21:21:15 437.345
CUBEBUG 2 27 May 21:16:01 21:19:57 27° 69° (ENE) 21:23:57 437.445
Oscar 11 27 May 21:25:01 21:28:54 33° 71° (ENE) 21:32:49 145.826/435.025
AIST 1 27 May 21:27:14 21:31:25 56° 280° (W) 21:35:38
DX 1 27 May 21:28:11 21:28:37 10° 63° (ENE) 21:29:19 434.975-435.025
YUBILEINY 27 May 21:28:59 21:33:41 15° 281° (W) 21:37:47 435.215
Cosmos 2491 27 May 21:29:25 21:37:07 31° 291° (WNW) 21:44:38 435.465 / 435.565
SEEDS 27 May 21:35:23 21:39:32 55° 260° (W) 21:43:42 437.485
GOMX 1 27 May 21:37:12 21:41:53 34° 266° (W) 21:46:44 467.674
BRITE-PL 27 May 21:39:42 21:43:41 22° 270° (W) 21:47:43 437.365/2234.400
COMPASS 1 27 May 21:47:24 21:51:29 50° 261° (W) 21:55:34 437.405
AAUSAT CUBESAT 2 27 May 21:58:58 22:02:57 42° 262° (W) 22:06:55 437.432
UWE-3 27 May 22:00:52 22:05:30 62° 75° (ENE) 22:10:08 435.000/436.395/437.385
CINEMA 3 27 May 22:05:34 22:10:25 50° 262° (W) 22:15:19 145.822/145.860
Cosmos 2504 27 May 22:08:28 22:15:40 75° 265° (W) 22:22:52 435.465 / 435.565
FUNcube-1 27 May 22:08:50 22:13:20 58° 75° (ENE) 22:17:51 145.935
AISAT 27 May 22:14:42 22:17:34 18° 66° (ENE) 22:20:37 437.250
ISS 27 May 22:20:30 22:21:33 11° 129° (SE) 22:22:44 145.825
DELFI C3 27 May 22:20:31 22:24:32 76° 258° (WSW) 22:28:34 145.870
HO-68 27 May 22:32:35 22:38:03 22° 269° (W) 22:43:14 435.675
DOVE 4 27 May 22:36:21 22:39:13 14° 273° (W) 22:41:50 437.250
HUMSAT D 27 May 22:37:12 22:41:25 54° 75° (ENE) 22:45:39 437.325/437.525
TIGRISAT 27 May 22:45:10 22:47:21 14° 90° (E) 22:49:43 435.000
ZACube-1 27 May 22:49:50 22:54:18 49° 261° (W) 22:58:45 437.345
UKube-1 27 May 22:49:58 22:54:16 78° 76° (ENE) 22:58:37 .
CUBEBUG 2 27 May 22:52:17 22:56:32 31° 265° (W) 23:00:44 437.445
CUSAT 1 27 May 22:58:53 23:02:54 16° 57° (ENE) 23:06:45 437.405
DX 1 27 May 22:59:58 23:04:19 75° 258° (WSW) 23:08:42 434.975-435.025
Oscar 11 27 May 23:01:55 23:05:11 20° 267° (W) 23:08:19 145.826/435.025
UNISAT 6 27 May 23:04:55 23:08:27 24° 94° (E) 23:12:00 437.425
CUBEBUG 1 27 May 23:13:35 23:17:32 35° 71° (ENE) 23:21:34 437.445
VELOX 1 27 May 23:17:23 23:21:48 81° 77° (ENE) 23:26:17 145.980
50 SAT 27 May 23:21:35 23:25:35 80° 256° (WSW) 23:29:36 437.505
ESTCUBE 1 27 May 23:23:46 23:28:07 54° 74° (ENE) 23:32:32 437.505/2401.250
NANOSAT C BR1 27 May 23:27:36 23:30:36 19° 92° (E) 23:33:43 145.865
QB50P2 27 May 23:35:55 23:39:24 24° 94° (E) 23:42:56 145.880/145.840
UWE-3 27 May 23:40:22 23:42:30 12° 272° (W) 23:44:21 435.000/436.395/437.385
ANTELSAT 27 May 23:47:40 23:52:04 77° 103° (ESE) 23:56:20 437.575/2403.000
POPSAT HIP 1 27 May 23:47:42 23:51:32 32° 96° (E) 23:55:23 437.405
FUNcube-1 27 May 23:47:53 23:50:05 13° 271° (W) 23:52:02 145.935
PCSat 27 May 23:47:53 23:50:10 13° 105° (ESE) 23:52:46 145.827
DUCHIFAT 1 27 May 23:48:53 23:52:43 32° 96° (E) 23:56:33 145.980
SPROUT 27 May 23:49:33 23:52:58 24° 69° (ENE) 23:56:30 437.525
AISAT 27 May 23:49:38 23:53:52 42° 262° (W) 23:58:07 437.250
ISS 27 May 23:54:23 23:57:36 68° 323° (NW) 00:00:51 145.825
GONETS M04 27 May 23:58:16 00:06:09 37° 71° (ENE) 00:14:06
BUGSAT 1 28 May 00:07:49 00:11:47 36° 97° (E) 00:15:43 437.445
TISAT 1 28 May 00:09:05 00:12:41 28° 70° (ENE) 00:16:23 437.305
DANDE 28 May 00:14:20 00:21:52 51° 73° (ENE) 00:27:49 436.750
HUMSAT D 28 May 00:15:40 00:17:33 12° 271° (W) 00:19:11 437.325/437.525
TIGRISAT 28 May 00:20:15 00:24:27 46° 287° (WNW) 00:28:33 435.000
QB50P1 28 May 00:31:20 00:35:38 76° 285° (WNW) 00:39:53 145.935-145.965
POLYITAN 1 28 May 00:33:53 00:38:10 70° 285° (WNW) 00:42:23 437.675
CUSAT 1 28 May 00:39:52 00:47:00 82° 263° (W) 00:52:25 437.405
UNISAT 6 28 May 00:41:31 00:45:14 27° 290° (WNW) 00:48:49 437.425
O/OREOS (USA 219) 28 May 00:42:07 00:44:31 15° 54° (NE) 00:47:06 437.305
CUBEBUG 1 28 May 00:50:51 00:54:02 19° 267° (W) 00:57:08 437.445
NANOSAT C BR1 28 May 01:02:40 01:06:33 34° 289° (WNW) 01:10:22 145.865
ESTCUBE 1 28 May 01:03:11 01:05:24 13° 271° (W) 01:07:24 437.505/2401.250
QB50P2 28 May 01:11:38 01:15:16 26° 290° (WNW) 01:18:48 145.880/145.840
VERMONT LUNAR 28 May 01:16:26 01:18:59 22° 151° (SSE) 01:21:33 437.305
POPSAT HIP 1 28 May 01:24:00 01:27:14 21° 292° (WNW) 01:30:21 437.405
DUCHIFAT 1 28 May 01:25:08 01:28:21 20° 292° (WNW) 01:31:26 145.980
SPROUT 28 May 01:25:12 01:28:58 28° 265° (W) 01:32:41 437.525
ITUPSAT 1 28 May 01:27:10 01:31:23 33° 70° (ENE) 01:35:40 437.325
PCSat 28 May 01:27:35 01:33:00 77° 299° (WNW) 01:38:27 145.827
ISS 28 May 01:32:34 01:34:32 15° 342° (NNW) 01:36:27 145.825
BEESAT 28 May 01:34:00 01:38:24 40° 71° (ENE) 01:42:52 436.000
SWISSCUBE 28 May 01:42:27 01:47:03 53° 73° (ENE) 01:51:41 437.505
BUGSAT 1 28 May 01:43:59 01:47:00 18° 292° (WNW) 01:49:53 437.445
TISAT 1 28 May 01:45:03 01:48:28 23° 266° (W) 01:51:49 437.305
GONETS M04 28 May 01:54:55 02:03:13 47° 271° (W) 02:11:20
PHONESAT 2.4 28 May 01:57:42 01:59:33 14° 146° (SSE) 02:01:28 2401.200-2431.200
DANDE 28 May 01:58:22 02:04:33 27° 276° (W) 02:09:31 436.750
Oscar 19 28 May 02:06:38 02:11:19 34° 96° (E) 02:15:59 437.125/150
BEESAT 3 28 May 02:19:12 02:22:23 22° 48° (NE) 02:25:36 437.485
O/OREOS (USA 219) 28 May 02:20:00 02:24:23 56° 252° (WSW) 02:28:45 437.305
ITAMSAT 1 28 May 02:24:28 02:27:03 14° 89° (E) 02:29:55 435.822/435.867
STARS 28 May 02:25:34 02:28:00 15° 66° (ENE) 02:30:36 437.465
CUSAT 1 28 May 02:26:35 02:28:08 11° 283° (WNW) 02:29:08 437.405
Cosmos 2499 28 May 02:34:31 02:41:31 64° 79° (E) 02:48:40 435.465 / 435.565
VERMONT LUNAR 28 May 02:52:42 02:55:55 82° 168° (SSE) 02:59:09 437.305
KKS-1 28 May 02:58:08 03:02:29 53° 73° (ENE) 03:06:53 437.445
ITUPSAT 1 28 May 03:05:28 03:09:20 24° 266° (W) 03:13:08 437.325
AIST 2 28 May 03:06:11 03:09:01 17° 44° (NE) 03:11:54 435.215
Gurwin Techsat 1B 28 May 03:06:33 03:11:25 36° 97° (E) 03:16:17 435.225
BEESAT 2 28 May 03:08:52 03:12:54 54° 56° (NE) 03:16:52 435.950
BEESAT 28 May 03:12:54 03:16:27 20° 267° (W) 03:19:51 436.000
PCSat 28 May 03:14:46 03:17:26 13° 320° (NW) 03:19:53 145.827
SWISSCUBE 28 May 03:22:31 03:25:18 15° 270° (W) 03:27:52 437.505
SO-50 28 May 03:24:07 03:28:46 75° 120° (ESE) 03:33:36 436.795
PHONESAT 2.4 28 May 03:33:49 03:37:15 57° 160° (SSE) 03:40:40 2401.200-2431.200
HORYU 2 28 May 03:45:34 03:47:04 12° 89° (E) 03:48:50 437.375
Oscar 19 28 May 03:46:13 03:50:33 27° 292° (WNW) 03:54:46 437.125/150
BEESAT 3 28 May 03:56:45 04:00:28 34° 245° (WSW) 04:04:05 437.485
STARS 28 May 03:59:44 04:04:04 51° 260° (W) 04:08:25 437.465
ITAMSAT 1 28 May 04:01:55 04:07:07 66° 286° (WNW) 04:12:17 435.822/435.867
JAS-2 28 May 04:19:51 04:24:19 30° 96° (E) 04:29:03 435.910
Cosmos 2499 28 May 04:29:10 04:34:05 20° 276° (W) 04:38:43 435.465 / 435.565
VERMONT LUNAR 28 May 04:30:00 04:33:12 67° 2° (N) 04:36:23 437.305
MOZHAYETS 4 28 May 04:35:06 04:39:25 44° 73° (ENE) 04:43:47
KKS-1 28 May 04:37:10 04:39:30 13° 270° (W) 04:41:37 437.445
AIST 2 28 May 04:43:49 04:47:55 50° 243° (WSW) 04:51:54 435.215
Gurwin Techsat 1B 28 May 04:46:47 04:51:17 28° 292° (WNW) 04:55:40 435.225
ISS 28 May 04:47:11 04:49:31 18° 22° (NNE) 04:51:52 145.825
BEESAT 2 28 May 04:48:45 04:50:34 12° 250° (WSW) 04:52:09 435.950
SO-50 28 May 05:06:50 05:09:56 17° 320° (NW) 05:12:58 436.795
AO-7 28 May 05:07:17 05:15:34 62° 103° (ESE) 05:23:51 29.400- 29.500
PHONESAT 2.4 28 May 05:11:53 05:15:22 70° 357° (N) 05:18:50 2401.200-2431.200
HORYU 2 28 May 05:19:48 05:24:11 58° 286° (WNW) 05:28:30 437.375
Cosmos 2491 28 May 05:43:36 05:50:31 26° 66° (ENE) 05:57:41 435.465 / 435.565
JAS-2 28 May 06:05:01 06:09:30 30° 291° (WNW) 06:14:01 435.910
VERMONT LUNAR 28 May 06:07:14 06:10:24 58° 199° (SSW) 06:13:32 437.305
MOZHAYETS 4 28 May 06:13:56 06:16:55 16° 269° (W) 06:19:44
CUBESAT XI-V 28 May 06:17:06 06:21:24 42° 72° (ENE) 06:25:48 437.345
ISS 28 May 06:23:00 06:26:15 76° 222° (SW) 06:29:31 145.825
CUTE-I 28 May 06:24:24 06:27:44 17° 90° (E) 06:31:19 437.470
STRAND 1 28 May 06:27:13 06:31:18 25° 67° (ENE) 06:35:29 437.568
YUBILEINY 28 May 06:34:52 06:40:58 23° 82° (E) 06:47:26 435.215
Cubesat XI-IV 28 May 06:44:32 06:49:00 27° 94° (E) 06:53:34 437.490
PHONESAT 2.4 28 May 06:50:05 06:53:34 84° 197° (SSW) 06:57:02 2401.200-2431.200
AO-7 28 May 07:00:52 07:07:55 31° 301° (WNW) 07:14:47 29.400- 29.500
PRISM 28 May 07:08:47 07:12:50 72° 75° (ENE) 07:16:56 437.425
M-CUBED/EXP-1 PRIME 28 May 07:23:48 07:28:01 70° 71° (ENE) 07:31:54 437.505
AUBIESAT-1 28 May 07:30:47 07:34:57 73° 71° (ENE) 07:38:48 437.475
AIST 1 28 May 07:35:34 07:39:26 30° 76° (ENE) 07:43:20
Cosmos 2491 28 May 07:39:29 07:48:14 67° 267° (W) 07:56:52 435.465 / 435.565
VERMONT LUNAR 28 May 07:45:33 07:47:12 13° 213° (SSW) 07:48:46 437.305
CUBESAT XI-V 28 May 07:55:57 07:59:06 18° 269° (W) 08:02:06 437.345
RS-15 28 May 07:58:15 08:06:51 30° 106° (ESE) 08:16:00 29.354- 29.394
CUTE-I 28 May 08:02:59 08:08:16 57° 287° (WNW) 08:13:30 437.470
STRAND 1 28 May 08:05:39 08:10:20 36° 263° (W) 08:15:02 437.568
BRITE-PL 28 May 08:07:14 08:10:51 18° 88° (E) 08:14:35 437.365/2234.400
HO-68 28 May 08:15:29 08:17:01 11° 85° (E) 08:19:12 435.675
Cubesat XI-IV 28 May 08:24:17 08:29:11 37° 291° (WNW) 08:34:03 437.490
YUBILEINY 28 May 08:28:17 08:37:03 72° 280° (W) 08:45:47 435.215
PHONESAT 2.4 28 May 08:28:33 08:31:26 24° 209° (SSW) 08:34:17 2401.200-2431.200
PCSat 28 May 08:35:34 08:37:25 12° 39° (NE) 08:39:30 145.827
Cosmos 2504 28 May 08:55:21 08:59:47 17° 82° (E) 09:04:32 435.465 / 435.565
DOVE 4 28 May 08:57:31 09:01:11 20° 90° (E) 09:04:49 437.250
CANX-2 28 May 08:57:48 09:00:41 18° 92° (E) 09:03:42 2200.000
CUTE 1.7 + AOD 2 28 May 09:01:10 09:04:02 18° 92° (E) 09:07:00 437.475
AIST 1 28 May 09:13:36 09:16:56 21° 271° (W) 09:20:09
SEEDS 28 May 09:21:13 09:24:38 25° 94° (E) 09:28:07 437.485
COMPASS 1 28 May 09:32:13 09:35:41 26° 95° (E) 09:39:14 437.405
GOMX 1 28 May 09:39:57 09:45:21 86° 105° (ESE) 09:50:23 467.674
Cosmos 2491 28 May 09:41:43 09:43:37 10° 284° (WNW) 09:44:40 435.465 / 435.565
AAUSAT CUBESAT 2 28 May 09:43:04 09:46:41 30° 96° (E) 09:50:21 437.432
TIGRISAT 28 May 09:43:24 09:45:33 13° 65° (ENE) 09:47:55 435.000
BRITE-PL 28 May 09:44:18 09:49:51 58° 287° (WNW) 09:55:06 437.365/2234.400
UWE-3 28 May 09:54:08 09:56:00 13° 89° (E) 09:58:02 435.000/436.395/437.385
HO-68 28 May 09:58:54 10:06:05 76° 104° (ESE) 10:13:14 435.675
FUNcube-1 28 May 10:01:03 10:02:12 11° 88° (E) 10:03:37 145.935
CINEMA 3 28 May 10:02:06 10:06:35 44° 97° (E) 10:10:52 145.822/145.860
DELFI C3 28 May 10:02:07 10:04:24 15° 91° (E) 10:06:52 145.870
UNISAT 6 28 May 10:02:56 10:06:28 22° 68° (ENE) 10:10:04 437.425
RS-15 28 May 10:07:31 10:18:23 71° 306° (NW) 10:29:35 29.354- 29.394
PCSat 28 May 10:16:34 10:21:59 67° 60° (ENE) 10:27:22 145.827
NANOSAT C BR1 28 May 10:20:15 10:22:18 14° 66° (ENE) 10:24:33 145.865
QB50P2 28 May 10:28:32 10:31:19 18° 67° (ENE) 10:34:15 145.880/145.840
YUBILEINY 28 May 10:31:41 10:35:52 13° 303° (WNW) 10:39:23 435.215
CANX-2 28 May 10:32:55 10:36:45 34° 288° (WNW) 10:40:31 2200.000
DOVE 4 28 May 10:34:23 10:39:11 42° 289° (WNW) 10:43:41 437.250
CUTE 1.7 + AOD 2 28 May 10:36:14 10:40:05 34° 288° (WNW) 10:43:52 437.475
POPSAT HIP 1 28 May 10:39:51 10:43:09 22° 69° (ENE) 10:46:34 437.405
ZACube-1 28 May 10:39:59 10:43:52 33° 96° (E) 10:47:42 437.345
UKube-1 28 May 10:40:09 10:42:20 14° 91° (E) 10:44:44 .
DUCHIFAT 1 28 May 10:40:38 10:43:54 22° 69° (ENE) 10:47:16 145.980
Cosmos 2504 28 May 10:44:02 10:52:26 87° 278° (W) 11:00:16 435.465 / 435.565
CUBEBUG 2 28 May 10:44:15 10:48:40 62° 100° (E) 10:52:54 437.445
ANTELSAT 28 May 10:45:04 10:49:41 60° 74° (ENE) 10:54:16 437.575/2403.000
Oscar 11 28 May 10:48:53 10:53:13 80° 102° (ESE) 10:57:30 145.826/435.025
DX 1 28 May 10:50:12 10:53:23 20° 93° (E) 10:56:42 434.975-435.025
SEEDS 28 May 10:56:56 11:00:23 25° 290° (WNW) 11:03:45 437.485
BUGSAT 1 28 May 10:57:17 11:00:31 23° 69° (ENE) 11:03:53 437.445
50 SAT 28 May 11:00:57 11:02:32 12° 90° (E) 11:04:17 437.505
COMPASS 1 28 May 11:07:57 11:11:17 23° 290° (WNW) 11:14:33 437.405
VELOX 1 28 May 11:10:10 11:12:58 17° 91° (E) 11:15:56 145.980
TIGRISAT 28 May 11:17:11 11:21:50 64° 259° (W) 11:26:28 435.000
AAUSAT CUBESAT 2 28 May 11:19:01 11:22:09 21° 291° (WNW) 11:25:11 437.432
ESTCUBE 1 28 May 11:19:27 11:21:15 12° 89° (E) 11:23:17 437.505/2401.250
GOMX 1 28 May 11:20:27 11:22:41 12° 299° (WNW) 11:24:36 467.674
QB50P1 28 May 11:22:39 11:26:54 69° 76° (ENE) 11:31:12 145.935-145.965
POLYITAN 1 28 May 11:25:26 11:29:43 76° 76° (ENE) 11:34:03 437.675
UWE-3 28 May 11:28:42 11:32:57 50° 286° (WNW) 11:37:03 435.000/436.395/437.385
FUNcube-1 28 May 11:34:47 11:39:01 56° 286° (WNW) 11:43:08 145.935
DELFI C3 28 May 11:36:00 11:39:43 37° 287° (WNW) 11:43:25 145.870
JUGNU 28 May 11:36:30 11:37:41 11° 177° (S) 11:38:54 437.505
UNISAT 6 28 May 11:38:42 11:43:03 36° 263° (W) 11:47:20 437.425
CINEMA 3 28 May 11:40:13 11:43:26 18° 294° (WNW) 11:46:25 145.822/145.860
AISAT 28 May 11:41:17 11:45:29 38° 98° (E) 11:49:40 437.250
DANDE 28 May 11:44:33 11:46:05 11° 76° (ENE) 11:48:21 436.750
HO-68 28 May 11:48:01 11:53:10 21° 301° (WNW) 11:58:03 435.675
NANOSAT C BR1 28 May 11:53:34 11:57:44 52° 260° (W) 12:01:57 145.865
SO-50 28 May 11:56:40 12:01:31 51° 54° (NE) 12:06:17 436.795
HUMSAT D 28 May 11:57:59 12:02:08 66° 284° (WNW) 12:06:11 437.325/437.525
CUSAT 1 28 May 12:01:36 12:06:57 22° 83° (E) 12:13:01 437.405
PCSat 28 May 12:01:41 12:04:53 15° 255° (WSW) 12:07:50 145.827
QB50P2 28 May 12:02:54 12:06:56 39° 262° (W) 12:10:59 145.880/145.840
UKube-1 28 May 12:14:36 12:18:49 48° 287° (WNW) 12:22:59 .
POPSAT HIP 1 28 May 12:15:05 12:18:54 30° 264° (W) 12:22:40 437.405
DUCHIFAT 1 28 May 12:15:48 12:19:34 30° 264° (W) 12:23:20 145.980
ZACube-1 28 May 12:16:52 12:20:02 20° 292° (WNW) 12:23:03 437.345
CUBEBUG 2 28 May 12:23:03 12:24:50 12° 296° (WNW) 12:26:22 437.445
RS-15 28 May 12:24:39 12:33:22 25° 334° (NNW) 12:42:06 29.354- 29.394
ANTELSAT 28 May 12:24:40 12:26:54 13° 271° (W) 12:28:51 437.575/2403.000
DX 1 28 May 12:25:45 12:29:45 34° 289° (WNW) 12:33:42 434.975-435.025
BUGSAT 1 28 May 12:32:17 12:35:54 27° 265° (W) 12:39:29 437.445
50 SAT 28 May 12:33:51 12:37:31 41° 287° (WNW) 12:41:09 437.505
CUBEBUG 1 28 May 12:39:10 12:43:39 85° 102° (ESE) 12:48:05 437.445
Cosmos 2504 28 May 12:42:13 12:47:02 16° 297° (WNW) 12:51:14 435.465 / 435.565
VELOX 1 28 May 12:45:31 12:49:47 42° 288° (WNW) 12:53:59 145.980
ESTCUBE 1 28 May 12:54:05 12:58:34 58° 285° (WNW) 13:03:01 437.505/2401.250
SRMSAT 28 May 12:57:24 12:57:41 10° 175° (S) 12:58:00 437.500
GONETS M04 28 May 12:57:43 13:05:49 44° 89° (E) 13:14:03
SPROUT 28 May 13:12:15 13:16:31 53° 100° (E) 13:20:44 437.525
